Location: Dreilärchen
(47.9312°N, 8.6113°E)
Time: 02:47:39
(UTC+00:00)

Cosmos 1867 - Pass Details

Date: 26 May 2022
Orbit: 775 x 801 km, 65.0° (Epoch: 26 June)

Event Time Altitude Azimuth Distance (km) Brightness Sun altitude
Exits shadow 00:05:01 34° 228° (SW) 1,287 4.2 -20.3°
Maximum altitude 00:07:27 78° 309° (NW) 822 3.6 -20.2°
Drops below altitude 10° 00:12:57 10° 36° (NE) 2,384 7.0 -20.1°
Sets 00:15:24 0° 38° (NE) 3,318 7.9 -20.0°
